Cozumel, Mexico

6:21 AM EST on June 21, 2018 (GMT -0500)
Cozumel

Weather History for MMCZ - September, 2017

Change the Weather History Date:

Wednesday, September 13, 2017

  Actual Average Record
Temperature  
Mean Temperature 80 °F -  
Max Temperature 86 °F 87 °F 93 °F (1997)
Min Temperature 75 °F 75 °F 68 °F (2013)
Cooling Degree Days 16    
Growing Degree Days 30 (Base 50)    
Moisture  
Dew Point 78 °F    
Average Humidity 91    
Maximum Humidity 100    
Minimum Humidity 79    
Precipitation  
Precipitation 0.35 in - - ()
Sea Level Pressure  
Sea Level Pressure 29.88 in    
Wind  
Wind Speed 2 mph ()    
Max Wind Speed 9 mph    
Max Gust Speed -    
Visibility 6.6 miles    
Events Rain , Thunderstorm    
Averages and records for this station are not official NWS values.
T = Trace of Precipitation, MM = Missing Value Source: Averaged Metar Reports

Daily Weather History Graph

Daily Weather History Graph

Search for Another Location

Airport or City:

Astronomy

Sep. 13, 2017 Rise Set
Actual Time 6:34 AM EST 6:52 PM EST
Civil Twilight 6:12 AM EST 7:14 PM EST
Nautical Twilight 5:46 AM EST 7:40 PM EST
Astronomical Twilight 5:20 AM EST 8:06 PM EST
Moon 12:07 AM EST (9/13) 1:35 PM EST (9/13)
Length of Visible Light 13h 01m
Length of Day
12h 17m
Last Quarter, 45% of the Moon is Illuminated
Sep 13
Last Quarter
Sep 20
New
Sep 27
First Quarter
Oct 5
Full
Oct 12
Last Quarter

Hourly Weather History & Observations

Time (EST) Temp. Heat Index Dew Point Humidity Pressure Visibility Wind Dir Wind Speed Gust Speed Precip Events Conditions
12:41 AM 80.6 °F 87.1 °F 77.0 °F 89% 29.90 in 7.0 mi SW 4.6 mph - N/A   Scattered Clouds
1:40 AM 78.8 °F - 77.0 °F 94% 29.87 in 7.0 mi Calm Calm - N/A   Scattered Clouds
2:40 AM 77.0 °F - 77.0 °F 100% 29.85 in 7.0 mi Calm Calm - N/A   Scattered Clouds
3:40 AM 77.0 °F - 75.2 °F 94% 29.86 in 7.0 mi Calm Calm - N/A   Scattered Clouds
4:40 AM 77.0 °F - 75.2 °F 94% 29.85 in 7.0 mi Calm Calm - N/A   Scattered Clouds
5:40 AM 75.2 °F - 75.2 °F 100% 29.86 in 7.0 mi Calm Calm - N/A   Scattered Clouds
6:40 AM 75.2 °F - 75.2 °F 100% 29.89 in 7.0 mi Calm Calm - N/A   Scattered Clouds
7:45 AM 80.6 °F 87.1 °F 77.0 °F 89% 29.88 in 7.0 mi Calm Calm - N/A   Scattered Clouds
8:41 AM 84.2 °F 98.3 °F 80.6 °F 89% 29.89 in 8.0 mi Calm Calm - N/A   Scattered Clouds
9:46 AM 84.2 °F 96.1 °F 78.8 °F 84% 29.92 in 8.0 mi Calm Calm - N/A   Scattered Clouds
10:40 AM 86.0 °F 99.3 °F 78.8 °F 79% 29.91 in 8.0 mi WNW 5.8 mph - N/A   Scattered Clouds
11:45 AM 84.2 °F 98.3 °F 80.6 °F 89% 29.91 in 7.0 mi NW 5.8 mph - N/A   Mostly Cloudy
12:20 PM 78.8 °F - 77.0 °F 94% 29.91 in 2.0 mi NNW 6.9 mph - N/A Rain , Thunderstorm Thunderstorms and Rain
12:43 PM 77.0 °F - 77.0 °F 100% 29.94 in 0.5 mi SW 9.2 mph - N/A Rain , Thunderstorm Heavy Thunderstorms and Rain
1:46 PM 75.2 °F - 75.2 °F 100% 29.88 in 5.0 mi WSW 5.8 mph - N/A Rain Light Rain
2:40 PM 84.2 °F 96.1 °F 78.8 °F 84% 29.86 in 7.0 mi WNW 4.6 mph - N/A   Mostly Cloudy
3:40 PM 84.2 °F 98.3 °F 80.6 °F 89% 29.87 in 7.0 mi Calm Calm - N/A   Mostly Cloudy
4:46 PM 86.0 °F 101.9 °F 80.6 °F 84% 29.85 in 7.0 mi East 3.5 mph - N/A   Mostly Cloudy
5:41 PM 86.0 °F 99.3 °F 78.8 °F 79% 29.84 in 7.0 mi SSE 8.1 mph - N/A   Mostly Cloudy
6:50 PM 82.4 °F 92.4 °F 78.8 °F 89% 29.87 in 7.0 mi SE 4.6 mph - N/A   Scattered Clouds
7:40 PM 82.4 °F 92.4 °F 78.8 °F 89% 29.87 in 7.0 mi SE 5.8 mph - N/A   Scattered Clouds
8:53 PM 80.6 °F 88.1 °F 78.8 °F 94% 29.89 in 7.0 mi SSE 5.8 mph - N/A   Scattered Clouds
9:45 PM 80.6 °F 87.1 °F 77.0 °F 89% 29.92 in 7.0 mi Calm Calm - N/A   Scattered Clouds
10:48 PM 80.6 °F 87.1 °F 77.0 °F 89% 29.91 in 7.0 mi Calm Calm - N/A   Scattered Clouds
11:40 PM 78.8 °F - 77.0 °F 94% 29.91 in 7.0 mi Calm Calm - N/A   Partly Cloudy